CW9790 Weather Reports


Display with metric or nautical units.
time (UTC)temp
F
wind
direction
speed
MPH
gust
MPH
rain 1hr
in
rain 24hr
in
rain mn
in
humidity
%
barometer
mb
20260901213018 97 203 1.0 6.0 0.00 0.00 0.00 38 1012.6
20260901212018 97 23 2.0 5.0 0.00 0.00 0.00 35 1012.7
20260901211018 98 90 2.0 5.0 0.00 0.00 0.00 35 1012.9
20260901210018 99 248 2.0 5.0 0.00 0.00 0.00 35 1013.2
20260901205018 99 225 2.0 6.0 0.00 0.00 0.00 34 1013.4
20260901204019 99 225 2.0 5.0 0.00 0.00 0.00 34 1013.4
20260901203018 99 68 2.0 7.0 0.00 0.00 0.00 33 1013.7
20260901202018 98 135 2.0 6.0 0.00 0.00 0.00 35 1013.8
20260901201018 98 158 3.0 7.0 0.00 0.00 0.00 35 1014.1
20260901200037 99 135 1.0 5.0 0.00 0.00 0.00 35 1014.3
20260901195017 98 135 2.0 4.0 0.00 0.00 0.00 36 1014.3
20260901194017 98 203 2.0 6.0 0.00 0.00 0.00 38 1014.4
20260901193019 97 135 3.0 9.0 0.00 0.00 0.00 35 1014.5
20260901192018 98 135 2.0 7.0 0.00 0.00 0.00 36 1014.6
20260901191017 97 135 2.0 6.0 0.00 0.00 0.00 37 1014.8
20260901190022 97 203 2.0 5.0 0.00 0.00 0.00 36 1014.8
20260901185021 97 135 2.0 6.0 0.00 0.00 0.00 37 1015.0
20260901184019 96 135 2.0 6.0 0.00 0.00 0.00 37 1015.2
20260901183018 95 135 3.0 12.0 0.00 0.00 0.00 39 1015.2
20260901182039 95 225 3.0 7.0 0.00 0.00 0.00 38 1015.4
20260901181018 95 158 3.0 9.0 0.00 0.00 0.00 39 1015.5
20260901180017 95 158 3.0 7.0 0.00 0.00 0.00 40 1015.8
20260901175017 95 135 2.0 6.0 0.00 0.00 0.00 39 1015.9
20260901174018 94 135 2.0 6.0 0.00 0.00 0.00 42 1015.8
20260901173018 94 248 3.0 7.0 0.00 0.00 0.00 41 1016.1
20260901172038 93 135 2.0 7.0 0.00 0.00 0.00 43 1016.2
20260901171019 93 135 3.0 9.0 0.00 0.00 0.00 45 1016.3
20260901170017 93 135 2.0 5.0 0.00 0.00 0.00 44 1016.2
20260901165018 92 135 2.0 7.0 0.00 0.00 0.00 46 1016.4
20260901164017 92 135 2.0 6.0 0.00 0.00 0.00 46 1016.4
20260901163018 91 135 2.0 5.0 0.00 0.00 0.00 49 1016.3
20260901162058 90 90 2.0 5.0 0.00 0.00 0.00 51 1016.2
20260901161017 89 135 2.0 5.0 0.00 0.00 0.00 53 1016.1
20260901160022 88 158 2.0 6.0 0.00 0.00 0.00 57 1016.0
20260901155017 88 135 2.0 5.0 0.00 0.00 0.00 58 1016.1
20260901154017 86 113 1.0 4.0 0.00 0.00 0.00 60 1015.9
20260901153038 85 158 1.0 7.0 0.00 0.00 0.00 61 1015.8
20260901152018 83 158 1.0 5.0 0.00 0.00 0.00 67 1015.7
20260901151017 82 180 2.0 6.0 0.00 0.00 0.00 66 1015.6
20260901150017 80 225 1.0 4.0 0.00 0.00 0.00 70 1015.6
20260901145017 79 158 1.0 4.0 0.00 0.00 0.00 76 1015.6
20260901144017 78 180 2.0 5.0 0.00 0.00 0.00 80 1015.4
20260901143017 76 180 1.0 3.0 0.00 0.00 0.00 86 1015.5
20260901142017 75 158 1.0 4.0 0.00 0.00 0.00 90 1015.4
20260901141017 75 158 1.0 5.0 0.00 0.00 0.00 92 1015.4
20260901140016 75 158 1.0 4.0 0.00 0.00 0.00 93 1015.5
20260901135017 74 0.0 3.0 0.00 0.00 0.00 93 1015.5
20260901134016 74 0.0 3.0 0.00 0.00 0.00 93 1015.4
20260901133016 74 0.0 2.0 0.00 0.00 0.00 93 1015.5
20260901132017 74 0.0 3.0 0.00 0.00 0.00 93 1015.4
20260901131017 73 0.0 3.0 0.00 0.00 0.00 93 1015.3
20260901130017 73 0.0 2.0 0.00 0.00 0.00 92 1015.2
20260901125016 72 0.0 0.0 0.00 0.00 0.00 92 1015.1
20260901124016 72 0.0 0.0 0.00 0.00 0.00 92 1015.1
20260901123037 72 0.0 0.0 0.00 0.00 0.00 91 1015.2
20260901122018 72 0.0 0.0 0.00 0.00 0.00 91 1015.2
20260901121016 72 0.0 1.0 0.00 0.00 0.00 91 1015.1
20260901120018 73 0.0 0.0 0.00 0.00 0.00 91 1015.2
20260901115016 73 0.0 0.0 0.00 0.00 0.00 90 1015.2
20260901114016 73 0.0 0.0 0.00 0.00 0.00 90 1015.2
20260901113016 73 0.0 1.0 0.00 0.00 0.00 90 1015.3
20260901112017 74 0.0 1.0 0.00 0.00 0.00 90 1015.3
20260901111016 74 0.0 3.0 0.00 0.00 0.00 90 1015.3
20260901110017 74 0.0 3.0 0.00 0.00 0.00 90 1015.3
20260901105016 74 180 1.0 4.0 0.00 0.00 0.00 90 1015.2
20260901104037 74 158 1.0 7.0 0.00 0.00 0.00 90 1015.1
20260901103016 74 158 1.0 5.0 0.00 0.00 0.00 89 1015.4
20260901102016 75 135 2.0 7.0 0.00 0.00 0.00 89 1015.4
20260901101037 75 158 1.0 5.0 0.00 0.00 0.00 88 1015.4
20260901100017 75 158 1.0 4.0 0.00 0.00 0.00 88 1015.5
20260901095037 75 158 1.0 5.0 0.00 0.00 0.00 87 1015.5
20260901094016 75 135 2.0 5.0 0.00 0.00 0.00 87 1015.5
20260901093016 75 135 1.0 6.0 0.00 0.00 0.00 86 1015.5
20260901092039 75 0.0 3.0 0.00 0.00 0.00 84 1015.7
20260901091038 75 180 1.0 3.0 0.00 0.00 0.00 83 1015.7
20260901090023 75 0.0 3.0 0.00 0.00 0.00 82 1015.6
20260901085018 75 158 1.0 4.0 0.00 0.00 0.00 82 1015.5
20260901084018 75 0.0 3.0 0.00 0.00 0.00 81 1015.4
20260901083022 76 135 1.0 4.0 0.00 0.00 0.00 80 1015.3
20260901082018 76 135 1.0 3.0 0.00 0.00 0.00 79 1015.3
20260901081018 76 0.0 4.0 0.00 0.00 0.00 78 1015.4
20260901080018 76 0.0 2.0 0.00 0.00 0.00 77 1015.5
20260901075018 77 0.0 2.0 0.00 0.00 0.00 75 1015.7
20260901074018 77 0.0 3.0 0.00 0.00 0.00 75 1015.7
20260901073020 77 0.0 5.0 0.00 0.00 0.00 74 1015.5
20260901072019 78 135 1.0 4.0 0.00 0.00 0.00 74 1015.5
20260901071018 78 113 1.0 5.0 0.00 0.00 0.00 73 1015.5
20260901070017 78 135 1.0 4.0 0.00 0.00 0.00 73 1015.4
20260901065018 78 113 1.0 6.0 0.00 0.00 0.00 73 1015.4
20260901064018 78 158 1.0 3.0 0.00 0.00 0.00 73 1015.4
20260901063037 78 135 1.0 4.0 0.00 0.00 0.00 74 1015.3
20260901062018 78 0.0 4.0 0.00 0.00 0.00 74 1015.1
20260901061038 78 0.0 2.0 0.00 0.00 0.00 73 1015.1
20260901060018 78 0.0 1.0 0.00 0.00 0.00 72 1015.1
20260901055058 79 0.0 2.0 0.00 0.00 0.00 71 1015.0
20260901054017 79 0.0 2.0 0.00 0.00 0.00 71 1015.1
20260901053037 79 0.0 2.0 0.00 0.00 0.00 70 1014.8
20260901052017 80 0.0 3.0 0.00 0.00 0.00 69 1014.8
20260901051019 80 135 1.0 4.0 0.00 0.00 0.00 69 1014.7
20260901050017 80 135 1.0 5.0 0.00 0.00 0.00 68 1014.6
20260901045037 80 0.0 3.0 0.00 0.00 0.00 68 1014.6
20260901044016 80 0.0 2.0 0.00 0.00 0.00 67 1014.5
20260901043017 80 135 1.0 5.0 0.00 0.00 0.00 66 1014.3
20260901042038 80 0.0 3.0 0.00 0.00 0.00 66 1014.3
20260901041057 80 0.0 3.0 0.00 0.00 0.00 66 1014.3
20260901040017 80 0.0 3.0 0.00 0.00 0.00 65 1014.0
20260901035017 79 0.0 1.0 0.00 0.00 0.00 64 1013.9
20260901034017 80 0.0 1.0 0.00 0.00 0.00 63 1013.9
20260901033016 80 0.0 2.0 0.00 0.00 0.00 63 1013.5
20260901032041 80 0.0 0.0 0.00 0.00 0.00 63 1013.6
20260901031056 80 0.0 0.0 0.00 0.00 0.00 62 1013.5
20260901030016 81 0.0 0.0 0.00 0.00 0.00 61 1013.2
20260901025017 81 0.0 0.0 0.00 0.00 0.00 60 1013.2
20260901024018 82 0.0 0.0 0.00 0.00 0.00 59 1013.1
20260901023017 82 0.0 0.0 0.00 0.00 0.00 58 1012.8
20260901022036 83 0.0 0.0 0.00 0.00 0.00 58 1012.6
20260901021017 83 0.0 0.0 0.00 0.00 0.00 57 1012.5
20260901020016 84 0.0 0.0 0.00 0.00 0.00 55 1012.4
20260901015017 85 0.0 0.0 0.00 0.00 0.00 54 1012.4
20260901014018 85 0.0 0.0 0.00 0.00 0.00 53 1012.5
20260901013017 86 0.0 0.0 0.00 0.00 0.00 52 1012.4
20260901012022 87 0.0 1.0 0.00 0.00 0.00 51 1012.3
20260901011017 87 0.0 5.0 0.00 0.00 0.00 50 1012.2
20260901010018 88 0.0 3.0 0.00 0.00 0.00 48 1012.2
20260901005017 89 0.0 4.0 0.00 0.00 0.00 47 1012.3
20260901004017 90 158 1.0 3.0 0.00 0.00 0.00 45 1012.2
20260901003017 91 158 1.0 4.0 0.00 0.00 0.00 43 1012.2
20260901002017 91 180 1.0 4.0 0.00 0.00 0.00 43 1012.2
20260901001017 92 113 1.0 4.0 0.00 0.00 0.00 42 1012.1
20260901000017 93 113 2.0 5.0 0.00 0.00 0.00 41 1012.1
20260831235037 93 135 2.0 5.0 0.00 0.00 0.00 40 1012.1
20260831234017 94 113 1.0 6.0 0.00 0.00 0.00 39 1012.2
20260831233017 95 113 2.0 5.0 0.00 0.00 0.00 38 1012.1
20260831232018 95 90 1.0 3.0 0.00 0.00 0.00 39 1012.2
20260831231017 95 135 2.0 11.0 0.00 0.00 0.00 38 1012.1
20260831230017 96 135 3.0 9.0 0.00 0.00 0.00 39 1012.2
20260831225017 96 135 2.0 7.0 0.00 0.00 0.00 42 1012.2
20260831224017 95 113 2.0 10.0 0.00 0.00 0.00 41 1012.3
20260831223021 95 135 3.0 8.0 0.00 0.00 0.00 41 1012.3
20260831222017 94 135 2.0 6.0 0.00 0.00 0.00 42 1012.3
20260831221018 96 135 3.0 12.0 0.00 0.00 0.00 39 1012.6
20260831220017 97 90 3.0 9.0 0.00 0.00 0.00 38 1012.7
20260831215017 97 68 3.0 6.0 0.00 0.00 0.00 38 1012.7
20260831214018 98 68 2.0 6.0 0.00 0.00 0.00 38 1013.0